Wind_Speed
35 33 32 31 31 30 29 29 29 27 26 25 23 22 21 20 19 20 19 19 17 17 16 15 14 13 14 13 13 13 13 13 13 13 14 15 15 15 16 17 18 18 18 18
37 37 35 34 33 32 31 31 31 29 28 26 25 23 23 22 22 21 21 20 19 19 19 18 17 15 14 15 15 15 14 15 16 16 16 16 16 17 18 19 19 20 20 21
39 38 37 37 35 34 34 33 33 31 30 28 27 25 24 23 22 21 21 21 21 20 20 19 18 16 17 16 17 17 17 17 18 18 19 19 19 20 20 21 21 21 22 23
39 39 40 37 36 35 35 35 35 35 33 31 30 28 26 26 26 24 24 23 22 23 22 21 21 20 19 19 18 19 20 20 20 20 21 22 22 22 22 23 24 24 25 26
40 41 40 38 37 36 36 36 35 36 36 33 32 30 29 28 27 28 28 27 26 24 25 25 24 23 22 22 22 22 22 21 21 22 22 23 23 24 25 25 27 27 27 28
42 42 42 40 38 38 38 38 36 36 36 35 34 33 31 30 30 29 29 28 27 27 27 28 27 27 26 26 26 25 24 24 25 26 26 26 25 26 27 28 28 29 29 29
41 42 43 41 40 40 41 41 39 38 37 37 36 35 33 33 32 31 31 30 30 30 30 30 30 31 30 29 28 28 27 27 28 29 29 29 29 29 30 31 31 32 32 32
41 42 42 41 41 41 42 42 41 40 39 38 37 36 36 36 35 34 33 32 33 34 34 34 34 34 33 33 32 31 31 31 32 32 32 32 32 32 32 32 33 33 33 33
41 40 40 40 40 40 41 41 41 41 40 39 38 38 38 38 38 37 35 35 35 36 36 36 36 36 36 35 34 33 33 33 33 34 34 33 33 34 34 33 33 34 34 34
41 40 40 40 39 39 39 40 39 39 39 39 39 39 39 38 38 38 37 38 37 37 37 37 38 38 37 35 35 34 34 34 35 35 34 35 35 35 35 34 34 34 35 34
41 41 41 40 39 39 39 39 39 39 38 39 40 40 40 39 38 38 38 37 38 38 38 38 39 38 38 37 36 35 36 36 35 35 36 36 36 36 35 35 34 35 34 34
38 38 38 38 39 39 39 40 40 39 38 39 40 41 40 40 39 39 39 38 38 39 39 39 39 39 39 39 38 37 37 37 36 37 37 36 36 36 35 35 35 34 34 34
37 37 38 38 39 39 39 40 40 40 40 40 41 41 41 39 39 39 40 40 40 40 39 39 39 39 39 39 39 38 38 37 37 37 37 37 36 35 35 35 34 34 34 34
36 36 37 37 38 38 38 38 40 40 41 41 42 42 40 39 39 39 39 39 39 39 39 39 39 39 39 39 38 38 38 38 38 37 37 36 35 35 35 34 34 34 35 34
35 35 36 36 37 38 39 39 39 40 40 40 40 40 40 39 39 39 39 39 39 39 39 38 39 39 39 38 38 38 37 37 37 37 37 36 35 35 35 35 35 34 34 34
33 35 36 36 36 37 37 37 37 38 38 37 37 38 38 38 38 38 38 38 38 39 38 37 38 38 38 38 38 38 37 37 36 36 36 35 35 36 36 35 35 34 34 34
30 31 32 33 34 34 34 34 34 35 35 36 36 36 36 37 37 37 36 36 37 37 37 36 35 35 35 35 35 35 35 34 34 34 34 35 36 36 37 36 36 36 35 35
28 28 30 31 32 32 33 33 33 33 33 34 34 34 35 36 35 35 35 35 35 35 34 34 33 32 32 31 31 32 33 32 33 34 35 35 36 36 36 36 37 37 37 36
25 26 27 28 30 31 31 31 32 32 32 33 33 33 33 34 33 32 32 32 32 31 31 31 31 31 31 30 30 31 32 33 33 34 34 35 35 35 35 36 37 36 37 36
21 22 24 25 26 28 29 29 29 29 29 30 30 30 30 30 29 29 29 29 29 29 29 29 29 28 28 28 28 29 31 31 32 33 34 34 34 34 35 35 35 35 35 36
18 19 20 22 24 25 27 27 27 27 28 29 29 28 28 29 29 28 27 27 26 27 27 28 28 28 28 28 28 29 29 29 30 31 32 33 33 33 33 33 34 34 34 34
16 17 17 18 20 22 24 25 25 24 24 25 26 26 26 27 27 27 27 27 26 26 26 26 26 26 27 27 27 28 28 28 29 30 30 30 30 31 31 32 33 32 32 33
13 14 15 16 16 17 19 21 22 22 22 21 22 22 23 23 23 23 24 24 24 24 24 24 25 25 26 26 26 26 27 27 28 28 28 28 29 29 30 30 31 30 30 30
11 11 12 13 14 15 17 18 18 18 18 19 19 20 21 22 22 21 22 22 22 23 23 23 24 25 25 25 25 25 26 26 27 26 27 27 27 28 28 28 28 28 28 28
9 9 9 10 11 13 15 15 16 16 16 16 16 17 18 19 20 20 20 21 21 21 22 22 23 24 24 24 24 25 25 25 25 24 25 26 26 27 27 27 28 28 28 27
7 6 7 7 9 10 11 13 13 13 12 13 14 15 15 16 16 18 18 19 19 20 21 21 22 23 23 23 23 23 23 24 24 24 25 25 26 26 26 27 27 27 27 28
6 6 6 7 7 8 8 9 9 9 10 11 13 13 14 15 15 16 17 18 19 19 20 20 21 22 22 23 23 22 23 23 24 24 24 25 25 25 26 26 26 26 26 27
Wind_Direction
226 224 225 226 228 230 233 238 240 240 243 247 252 257 257 258 261 257 261 268 268 268 265 265 263 264 265 264 267 272 275 282 286 288 291 295 297 298 300 302 306 308 308 306
226 226 227 228 229 230 232 236 239 241 242 247 251 254 255 255 258 259 262 266 265 263 262 262 261 263 267 268 270 272 273 279 282 285 288 290 291 293 295 298 301 303 305 304
228 226 228 229 230 231 233 236 238 239 240 243 248 252 253 254 257 260 263 266 264 263 265 264 263 265 267 274 274 271 271 274 279 282 284 285 287 288 290 294 295 297 298 299
232 228 229 230 229 231 233 236 238 241 241 244 248 251 253 253 256 260 265 268 267 266 269 270 272 272 273 275 273 272 277 276 276 279 281 283 286 289 291 293 295 295 296 299
233 231 231 230 229 231 234 236 239 240 243 246 248 251 254 258 259 260 264 266 265 267 271 271 274 273 273 274 275 276 276 277 277 280 283 286 288 289 290 291 292 296 297 301
233 233 233 232 232 233 235 237 238 241 243 246 249 252 255 258 260 263 265 266 266 266 268 270 272 273 273 273 274 275 275 276 280 282 285 288 287 288 290 292 293 294 295 298
234 235 236 234 234 235 236 237 238 241 244 247 249 252 255 257 259 262 266 267 267 266 265 268 271 274 275 275 276 275 275 277 280 283 285 287 286 287 290 291 291 291 293 296
234 236 237 237 236 236 238 239 240 242 243 246 248 251 254 257 259 260 262 263 264 263 264 266 269 271 272 273 274 275 275 276 279 282 283 284 285 287 288 290 291 291 294 295
236 237 238 239 240 239 239 241 242 243 244 246 249 251 252 255 258 259 259 260 262 262 263 264 267 269 270 270 272 273 274 275 278 281 282 284 284 286 287 289 291 292 293 293
239 239 239 240 241 241 242 243 244 245 245 245 247 249 250 253 256 258 259 259 260 262 263 265 267 268 269 271 271 271 273 274 277 279 281 283 285 286 287 288 289 290 290 290
241 241 240 240 241 242 244 245 246 247 246 246 247 249 252 253 255 258 260 260 261 263 264 265 267 267 269 271 270 272 274 275 277 277 279 281 283 284 285 287 288 289 290 289
240 241 241 240 241 242 243 243 245 247 248 248 249 250 251 252 254 257 258 259 260 262 264 266 266 268 270 271 272 272 274 274 276 278 279 280 282 283 284 286 288 289 289 290
239 240 240 241 242 245 245 244 244 246 248 248 249 250 251 252 253 256 258 259 261 261 263 265 266 268 270 271 271 271 272 273 275 276 276 278 281 283 284 285 286 287 289 289
238 240 240 241 243 244 244 244 246 247 248 250 250 250 251 252 253 255 258 260 262 263 264 266 268 270 271 272 271 272 272 273 274 274 276 278 280 281 282 283 284 286 287 289
240 241 241 241 244 246 246 247 248 249 250 251 251 251 251 252 254 255 258 260 262 263 264 266 267 269 271 272 273 272 272 273 273 274 275 277 278 280 282 283 284 285 286 287
243 242 240 240 242 243 246 247 248 250 252 252 253 252 252 253 254 255 258 261 262 263 265 265 267 269 271 273 273 272 272 272 272 273 275 276 277 279 282 283 283 284 286 287
243 242 240 240 241 243 246 248 249 250 251 252 253 253 254 255 255 257 259 261 263 264 264 265 267 268 269 271 271 273 274 274 273 273 275 276 277 279 281 281 282 283 285 286
243 244 245 243 243 244 246 248 250 250 251 252 253 254 255 255 256 257 258 260 262 264 265 267 269 269 269 270 271 272 272 272 274 276 277 278 278 279 280 281 282 283 284 284
247 248 247 248 246 245 246 246 248 249 250 252 254 255 255 254 254 255 256 259 260 261 262 265 267 268 271 272 273 273 274 275 276 277 277 278 279 279 280 281 282 282 283 283
251 250 248 246 245 244 244 245 246 247 248 250 251 252 254 253 253 255 257 257 259 261 263 265 268 270 272 273 273 275 276 277 277 277 277 278 280 281 281 281 281 282 282 283
253 252 250 246 245 245 245 244 244 245 247 249 250 251 252 251 250 252 255 257 259 262 265 266 267 270 273 273 274 275 278 279 279 280 280 280 281 282 282 283 284 284 284 284
255 253 252 251 250 246 244 243 243 244 247 247 246 249 250 250 250 251 254 256 259 262 264 266 268 270 273 275 277 280 282 283 284 283 282 282 281 282 284 285 285 285 285 284
256 256 253 251 249 245 243 242 243 245 247 247 245 245 246 247 251 254 254 255 258 261 264 268 271 273 274 276 279 280 281 283 284 284 284 284 284 284 286 287 287 287 287 286
253 255 251 246 244 243 241 242 243 244 246 247 247 247 249 250 254 256 257 258 259 261 264 268 271 274 276 278 280 281 282 282 283 284 285 285 286 286 287 288 289 290 290 289
253 251 245 238 235 236 238 241 240 242 245 246 250 253 252 251 253 255 257 259 261 264 266 270 273 276 278 281 283 283 284 284 284 285 286 286 287 288 288 289 289 289 288 288
242 242 243 243 241 239 237 236 240 242 246 251 252 252 254 254 256 258 261 263 266 269 269 272 276 279 280 282 283 283 284 285 286 288 288 289 290 290 290 290 290 290 289 289
252 252 252 251 245 236 235 238 244 250 254 254 259 257 257 259 264 265 266 268 271 273 274 275 278 281 281 283 282 283 285 286 289 291 291 291 292 293 293 292 292 292 292 292
Height
5848 5853 5856 5859 5862 5865 5866 5868 5870 5872 5875 5877 5879 5880 5882 5883 5884 5885 5885 5886 5886 5887 5887 5888 5888 5889 5890 5891 5891 5891 5891 5890 5889 5888 5886 5885 5884 5882 5881 5879 5878 5875 5873 5871
5841 5845 5849 5852 5856 5858 5860 5862 5864 5866 5869 5871 5873 5875 5876 5878 5879 5880 5881 5882 5881 5882 5882 5883 5884 5884 5885 5885 5885 5885 5886 5885 5884 5883 5882 5880 5879 5878 5876 5875 5873 5871 5869 5866
5833 5837 5841 5845 5849 5851 5853 5855 5858 5860 5863 5864 5866 5868 5871 5872 5873 5874 5876 5876 5876 5876 5876 5878 5878 5879 5880 5880 5880 5880 5880 5879 5879 5878 5877 5875 5874 5873 5871 5869 5867 5865 5863 5861
5824 5830 5833 5839 5841 5843 5845 5848 5851 5853 5855 5857 5860 5862 5864 5865 5867 5869 5869 5870 5870 5870 5870 5871 5872 5873 5874 5874 5874 5874 5874 5873 5873 5872 5871 5869 5868 5867 5865 5863 5861 5859 5857 5855
5815 5819 5823 5829 5833 5835 5837 5840 5843 5845 5848 5850 5853 5855 5857 5859 5861 5862 5863 5864 5865 5865 5865 5865 5866 5866 5867 5868 5868 5868 5867 5867 5866 5865 5864 5863 5862 5860 5859 5857 5855 5852 5850 5848
5804 5809 5813 5821 5824 5826 5830 5832 5835 5838 5841 5843 5846 5848 5851 5852 5853 5855 5856 5857 5858 5859 5859 5859 5859 5860 5861 5860 5861 5860 5860 5860 5859 5858 5857 5856 5855 5853 5852 5850 5848 5845 5843 5840
5794 5798 5803 5810 5814 5817 5821 5824 5828 5830 5833 5835 5838 5840 5843 5844 5846 5847 5848 5850 5850 5851 5852 5853 5853 5853 5853 5852 5853 5852 5852 5852 5851 5850 5850 5849 5847 5846 5844 5842 5840 5837 5835 5832
5785 5789 5796 5800 5804 5807 5810 5815 5818 5822 5824 5827 5829 5831 5834 5836 5838 5839 5841 5842 5843 5844 5844 5845 5845 5845 5845 5844 5844 5844 5844 5843 5843 5842 5841 5840 5839 5837 5835 5833 5831 5829 5827 5824
5777 5782 5785 5789 5793 5797 5800 5804 5808 5811 5815 5817 5820 5822 5824 5827 5829 5830 5832 5833 5834 5835 5835 5836 5836 5836 5836 5835 5835 5835 5835 5834 5834 5833 5832 5831 5829 5828 5826 5824 5822 5820 5818 5815
5767 5771 5775 5779 5783 5786 5790 5794 5798 5801 5804 5807 5809 5811 5814 5816 5818 5820 5822 5823 5824 5825 5826 5826 5827 5827 5827 5827 5827 5826 5825 5825 5824 5823 5822 5821 5819 5818 5817 5815 5813 5811 5808 5806
5757 5762 5765 5769 5773 5777 5780 5783 5786 5789 5792 5795 5798 5800 5803 5805 5807 5809 5811 5813 5814 5815 5815 5816 5817 5816 5816 5817 5817 5817 5816 5815 5814 5813 5812 5811 5809 5808 5806 5805 5803 5801 5799 5796
5748 5752 5756 5760 5763 5766 5769 5772 5775 5778 5781 5784 5786 5789 5792 5794 5796 5798 5800 5802 5803 5804 5804 5805 5806 5806 5806 5806 5806 5805 5805 5805 5804 5803 5802 5801 5799 5798 5796 5795 5793 5791 5788 5786
5738 5741 5745 5749 5752 5756 5759 5761 5764 5767 5770 5772 5775 5777 5780 5782 5785 5787 5789 5791 5792 5793 5794 5795 5795 5795 5795 5795 5794 5794 5794 5794 5793 5792 5792 5790 5789 5788 5786 5785 5783 5780 5778 5776
5729 5731 5735 5739 5742 5745 5748 5751 5754 5757 5759 5762 5764 5766 5768 5771 5773 5776 5778 5780 5781 5782 5783 5784 5784 5785 5784 5784 5783 5783 5783 5782 5782 5782 5781 5780 5779 5777 5776 5774 5773 5770 5768 5766
5719 5721 5725 5728 5731 5734 5737 5740 5743 5746 5749 5751 5753 5755 5758 5761 5763 5765 5767 5769 5770 5771 5772 5772 5773 5774 5773 5773 5772 5772 5771 5771 5771 5770 5770 5769 5768 5767 5765 5764 5762 5760 5757 5755
5710 5712 5714 5718 5721 5723 5726 5730 5733 5736 5738 5740 5742 5745 5747 5750 5752 5755 5756 5758 5759 5759 5760 5760 5761 5762 5762 5761 5761 5760 5760 5759 5759 5759 5757 5757 5756 5755 5754 5752 5750 5748 5746 5744
5700 5702 5705 5708 5711 5714 5717 5720 5723 5725 5728 5730 5732 5734 5736 5738 5741 5744 5745 5747 5748 5748 5749 5749 5749 5750 5749 5749 5749 5749 5749 5748 5748 5748 5746 5746 5745 5744 5743 5741 5739 5737 5735 5733
5692 5694 5696 5698 5701 5704 5707 5710 5712 5715 5717 5720 5722 5724 5726 5728 5731 5733 5735 5736 5738 5738 5738 5738 5738 5738 5737 5737 5737 5738 5737 5737 5737 5736 5736 5735 5734 5732 5731 5729 5727 5726 5724 5722
5684 5685 5687 5689 5692 5694 5697 5700 5703 5705 5708 5710 5712 5714 5716 5719 5721 5723 5725 5726 5727 5729 5729 5729 5728 5728 5728 5728 5727 5727 5726 5726 5726 5725 5724 5724 5722 5721 5719 5718 5716 5713 5711 5709
5676 5677 5678 5680 5683 5685 5688 5691 5694 5697 5699 5702 5703 5706 5708 5711 5712 5714 5716 5717 5718 5719 5720 5720 5720 5719 5719 5718 5718 5717 5716 5716 5715 5714 5713 5712 5711 5709 5707 5705 5703 5701 5699 5697
5669 5670 5671 5672 5675 5677 5680 5683 5686 5689 5692 5694 5696 5698 5700 5702 5704 5705 5706 5708 5709 5710 5711 5711 5711 5711 5711 5710 5709 5707 5706 5705 5704 5703 5702 5702 5700 5698 5696 5694 5692 5689 5687 5685
5663 5664 5665 5667 5668 5670 5672 5675 5678 5681 5683 5686 5688 5690 5692 5694 5696 5697 5698 5700 5701 5702 5703 5703 5702 5703 5703 5701 5700 5698 5697 5696 5695 5693 5692 5691 5689 5687 5685 5683 5680 5678 5675 5673
5658 5659 5660 5662 5663 5664 5666 5669 5671 5674 5677 5679 5681 5683 5685 5686 5688 5690 5691 5693 5694 5694 5695 5695 5695 5695 5694 5693 5692 5690 5689 5687 5686 5684 5683 5681 5679 5677 5674 5672 5670 5667 5664 5662
5655 5655 5656 5657 5659 5660 5662 5665 5667 5669 5672 5674 5676 5678 5679 5681 5682 5683 5685 5686 5687 5688 5688 5688 5687 5687 5686 5685 5683 5682 5681 5679 5678 5676 5674 5672 5670 5668 5665 5663 5660 5658 5655 5653
5652 5653 5653 5654 5656 5657 5659 5661 5664 5666 5668 5669 5671 5672 5674 5675 5677 5678 5679 5679 5680 5681 5680 5680 5680 5679 5678 5677 5675 5673 5672 5671 5669 5668 5666 5664 5661 5659 5657 5654 5652 5649 5646 5644
5651 5652 5653 5654 5655 5656 5657 5659 5661 5663 5665 5666 5667 5668 5669 5670 5671 5672 5673 5673 5673 5674 5673 5673 5673 5671 5670 5669 5668 5666 5664 5663 5661 5660 5657 5655 5653 5651 5648 5645 5643 5640 5638 5635
5651 5652 5652 5652 5653 5654 5656 5657 5658 5660 5661 5662 5663 5664 5664 5665 5666 5667 5667 5667 5667 5667 5666 5666 5665 5664 5663 5661 5660 5659 5657 5655 5653 5651 5650 5647 5645 5642 5640 5637 5635 5632 5630 5627